User: anonymous   Login
Location: NC_16_and_73
(35.4490°N, 81.0150°W)
Time: 23:04:47
(UTC-04:00)
Language:

Cosmos-2242 - Orbit

View from above orbital plane
View from above orbital plane
View from above satellite
View from above satellite

Ground track
Ground track

The orbit data is extracted from the following two-line orbital elements,

1 22626U 93024A   15211.41875577  .00000508  00000-0  53797-4 0  9998
2 22626 082.5244 329.9471 0018018 240.7029 119.2387 14.87059530203910
Epoch (UTC): 30 July 2015 10:03:00
Eccentricity: 0.0018018
inclination: 82.5244°
perigee height: 594 km
apogee height: 620 km
right ascension of ascending node: 329.9471°
argument of perigee: 240.7029°
revolutions per day: 14.87059530
mean anomaly at epoch: 119.2387°
orbit number at epoch: 20391

The dashed part of the orbit path shows where the satellite is in the earth's shadow,  

DLR